QPF
0.03 0.00 0.03 0.02 0.10 0.13 0.02 0.00 0.00 0.00 0.01 0.00 0.01 0.00 0.00 0.01 0.02 0.02 0.00 0.00 0.00 0.00 0.00 0.00 0.01 0.01 0.00 0.00 0.00 0.00 0.00 0.03 0.02 0.01 0.00 0.00 0.00 0.00 0.01 0.06 0.08 0.02 0.05
0.08 0.00 0.03 0.03 0.08 0.10 0.07 0.01 0.01 0.00 0.04 0.05 0.04 0.01 0.02 0.02 0.01 0.00 0.00 0.00 0.00 0.00 0.00 0.00 0.00 0.00 0.00 0.00 0.00 0.00 0.00 0.00 0.01 0.00 0.00 0.00 0.00 0.00 0.00 0.02 0.04 0.04 0.10
0.02 0.01 0.00 0.01 0.03 0.05 0.07 0.05 0.02 0.00 0.00 0.01 0.01 0.00 0.00 0.00 0.00 0.00 0.00 0.00 0.00 0.00 0.00 0.00 0.00 0.00 0.00 0.00 0.00 0.00 0.00 0.00 0.00 0.00 0.00 0.00 0.00 0.00 0.00 0.00 0.00 0.00 0.00
0.00 0.00 0.00 0.00 0.02 0.04 0.06 0.05 0.04 0.04 0.03 0.02 0.01 0.00 0.00 0.00 0.00 0.00 0.00 0.00 0.00 0.00 0.00 0.00 0.00 0.00 0.00 0.00 0.00 0.00 0.00 0.00 0.00 0.00 0.00 0.00 0.00 0.00 0.00 0.00 0.00 0.00 0.00
0.02 0.00 0.00 0.02 0.04 0.06 0.06 0.07 0.06 0.07 0.06 0.04 0.06 0.02 0.00 0.00 0.00 0.00 0.00 0.01 0.02 0.00 0.00 0.00 0.00 0.00 0.00 0.00 0.00 0.00 0.00 0.00 0.00 0.00 0.00 0.00 0.00 0.05 0.01 0.00 0.00 0.00 0.00
0.07 0.00 0.00 0.02 0.03 0.03 0.04 0.05 0.06 0.06 0.05 0.04 0.01 0.00 0.00 0.00 0.00 0.00 0.00 0.01 0.02 0.01 0.00 0.00 0.00 0.00 0.00 0.00 0.00 0.00 0.00 0.00 0.00 0.00 0.00 0.01 0.05 0.08 0.02 0.00 0.00 0.00 0.00
0.01 0.00 0.00 0.00 0.00 0.00 0.01 0.02 0.03 0.05 0.06 0.04 0.02 0.01 0.00 0.00 0.00 0.00 0.01 0.01 0.02 0.01 0.01 0.00 0.00 0.00 0.00 0.00 0.00 0.00 0.00 0.00 0.00 0.00 0.00 0.00 0.03 0.08 0.00 0.00 0.00 0.00 0.03
0.00 0.00 0.00 0.00 0.00 0.00 0.00 0.00 0.00 0.01 0.00 0.00 0.00 0.00 0.00 0.00 0.00 0.01 0.01 0.01 0.01 0.01 0.01 0.02 0.01 0.00 0.00 0.00 0.00 0.00 0.00 0.00 0.00 0.00 0.00 0.00 0.01 0.02 0.01 0.00 0.00 0.02 0.01
0.00 0.00 0.00 0.00 0.00 0.00 0.00 0.00 0.00 0.00 0.00 0.00 0.00 0.00 0.00 0.00 0.00 0.00 0.00 0.01 0.01 0.00 0.00 0.00 0.02 0.01 0.00 0.00 0.00 0.00 0.00 0.00 0.00 0.00 0.00 0.00 0.00 0.00 0.02 0.00 0.00 0.01 0.01
0.00 0.00 0.00 0.00 0.00 0.00 0.00 0.00 0.00 0.00 0.00 0.00 0.00 0.00 0.00 0.00 0.00 0.00 0.00 0.00 0.00 0.00 0.00 0.00 0.00 0.01 0.01 0.00 0.00 0.00 0.00 0.00 0.00 0.00 0.00 0.00 0.00 0.00 0.04 0.03 0.00 0.00 0.02
0.00 0.00 0.00 0.00 0.00 0.00 0.00 0.00 0.00 0.00 0.00 0.00 0.00 0.00 0.00 0.00 0.00 0.00 0.00 0.00 0.00 0.00 0.00 0.01 0.01 0.00 0.00 0.00 0.00 0.00 0.00 0.00 0.00 0.00 0.00 0.00 0.00 0.01 0.00 0.00 0.00 0.01 0.00
0.00 0.00 0.00 0.00 0.00 0.00 0.00 0.00 0.00 0.00 0.00 0.00 0.00 0.00 0.00 0.00 0.00 0.00 0.00 0.00 0.00 0.00 0.00 0.00 0.00 0.00 0.00 0.00 0.00 0.00 0.00 0.00 0.00 0.00 0.00 0.00 0.00 0.00 0.02 0.02 0.01 0.02 0.01
0.00 0.00 0.00 0.00 0.00 0.00 0.00 0.00 0.00 0.00 0.00 0.00 0.00 0.00 0.00 0.00 0.00 0.00 0.00 0.00 0.00 0.00 0.00 0.00 0.00 0.00 0.00 0.02 0.01 0.01 0.00 0.00 0.00 0.00 0.00 0.00 0.00 0.00 0.00 0.04 0.05 0.01 0.03
0.00 0.00 0.00 0.00 0.00 0.00 0.00 0.00 0.00 0.00 0.00 0.00 0.00 0.00 0.00 0.00 0.00 0.00 0.00 0.00 0.00 0.00 0.00 0.00 0.00 0.00 0.02 0.05 0.11 0.08 0.03 0.00 0.00 0.00 0.00 0.00 0.00 0.00 0.01 0.02 0.04 0.03 0.02
0.00 0.00 0.00 0.00 0.00 0.00 0.00 0.00 0.00 0.00 0.00 0.00 0.00 0.00 0.00 0.00 0.00 0.00 0.00 0.00 0.00 0.00 0.00 0.00 0.00 0.00 0.00 0.01 0.04 0.12 0.12 0.06 0.00 0.00 0.00 0.00 0.00 0.00 0.01 0.01 0.03 0.03 0.07
0.00 0.00 0.00 0.00 0.00 0.00 0.00 0.00 0.00 0.00 0.00 0.00 0.00 0.00 0.00 0.00 0.00 0.00 0.00 0.00 0.00 0.00 0.00 0.00 0.00 0.00 0.00 0.00 0.00 0.02 0.05 0.09 0.09 0.01 0.00 0.00 0.00 0.00 0.00 0.03 0.06 0.03 0.01
0.00 0.00 0.00 0.00 0.00 0.00 0.00 0.00 0.00 0.00 0.00 0.00 0.00 0.00 0.00 0.00 0.00 0.00 0.00 0.00 0.00 0.00 0.00 0.00 0.00 0.00 0.00 0.00 0.00 0.00 0.02 0.02 0.04 0.05 0.01 0.00 0.00 0.00 0.00 0.00 0.03 0.06 0.08
0.00 0.00 0.00 0.00 0.00 0.00 0.00 0.00 0.00 0.00 0.00 0.00 0.00 0.00 0.00 0.00 0.00 0.00 0.00 0.00 0.00 0.00 0.00 0.00 0.00 0.00 0.00 0.00 0.00 0.00 0.00 0.00 0.01 0.00 0.01 0.01 0.00 0.00 0.00 0.00 0.00 0.01 0.03
0.00 0.00 0.00 0.00 0.00 0.00 0.00 0.00 0.00 0.00 0.00 0.00 0.00 0.00 0.00 0.00 0.00 0.00 0.00 0.00 0.00 0.00 0.00 0.00 0.00 0.00 0.00 0.00 0.00 0.00 0.00 0.00 0.00 0.00 0.00 0.00 0.00 0.00 0.00 0.00 0.00 0.00 0.00
0.00 0.00 0.00 0.00 0.00 0.00 0.00 0.00 0.00 0.00 0.00 0.00 0.00 0.00 0.00 0.00 0.00 0.00 0.00 0.00 0.00 0.00 0.00 0.00 0.00 0.00 0.00 0.00 0.00 0.00 0.00 0.00 0.00 0.00 0.00 0.00 0.00 0.00 0.00 0.00 0.00 0.00 0.00
0.00 0.00 0.00 0.00 0.00 0.00 0.00 0.00 0.00 0.00 0.00 0.00 0.00 0.00 0.00 0.00 0.00 0.00 0.00 0.00 0.00 0.00 0.00 0.00 0.00 0.00 0.00 0.00 0.00 0.00 0.00 0.00 0.00 0.00 0.00 0.00 0.00 0.00 0.00 0.00 0.00 0.00 0.00
0.00 0.00 0.00 0.00 0.00 0.00 0.00 0.00 0.00 0.00 0.00 0.00 0.00 0.00 0.00 0.00 0.00 0.00 0.00 0.00 0.00 0.00 0.00 0.00 0.00 0.00 0.00 0.00 0.00 0.00 0.00 0.00 0.00 0.00 0.00 0.00 0.00 0.00 0.00 0.00 0.00 0.00 0.00
0.00 0.00 0.00 0.00 0.00 0.00 0.00 0.00 0.00 0.00 0.00 0.00 0.00 0.00 0.00 0.00 0.00 0.00 0.00 0.00 0.00 0.00 0.00 0.00 0.00 0.00 0.00 0.00 0.00 0.02 0.01 0.00 0.00 0.00 0.00 0.00 0.00 0.00 0.00 0.01 0.01 0.01 0.01
0.00 0.00 0.00 0.00 0.00 0.00 0.00 0.00 0.00 0.00 0.00 0.00 0.00 0.00 0.00 0.00 0.00 0.00 0.00 0.00 0.00 0.00 0.00 0.00 0.00 0.00 0.00 0.00 0.00 0.00 0.02 0.02 0.01 0.00 0.00 0.00 0.00 0.00 0.00 0.00 0.00 0.00 0.01
0.00 0.00 0.00 0.00 0.00 0.00 0.00 0.00 0.00 0.00 0.00 0.00 0.00 0.00 0.00 0.00 0.00 0.00 0.00 0.00 0.00 0.00 0.00 0.00 0.00 0.00 0.00 0.00 0.00 0.00 0.00 0.00 0.01 0.02 0.00 0.00 0.00 0.00 0.00 0.00 0.00 0.00 0.00
0.00 0.00 0.00 0.00 0.00 0.00 0.00 0.00 0.00 0.00 0.00 0.00 0.00 0.00 0.00 0.00 0.00 0.00 0.00 0.00 0.00 0.00 0.00 0.00 0.00 0.00 0.00 0.00 0.00 0.00 0.01 0.01 0.00 0.01 0.01 0.00 0.00 0.00 0.00 0.00 0.00 0.00 0.00
MSLP
1016.48 1016.77 1017.04 1017.25 1017.47 1017.48 1017.39 1017.40 1017.32 1017.30 1017.42 1017.46 1017.43 1017.59 1017.72 1017.77 1017.83 1017.86 1017.86 1017.85 1017.91 1017.91 1017.90 1017.88 1017.90 1017.86 1017.92 1017.91 1018.03 1017.95 1017.84 1017.86 1017.89 1017.88 1018.05 1018.06 1018.05 1018.03 1018.04 1018.12 1018.04 1018.08 1018.18
1016.51 1017.02 1017.26 1017.58 1017.73 1017.80 1017.82 1017.79 1017.70 1017.69 1017.86 1017.81 1017.80 1017.95 1018.02 1018.06 1018.15 1018.22 1018.17 1018.19 1018.12 1018.21 1018.19 1018.19 1018.21 1018.26 1018.30 1018.33 1018.34 1018.39 1018.28 1018.23 1018.23 1018.22 1018.29 1018.39 1018.41 1018.38 1018.19 1018.26 1018.21 1018.43 1018.48
1016.74 1017.26 1017.62 1017.87 1017.93 1018.07 1018.19 1018.13 1018.07 1018.07 1018.14 1018.21 1018.15 1018.20 1018.25 1018.29 1018.32 1018.40 1018.40 1018.42 1018.40 1018.43 1018.47 1018.47 1018.53 1018.60 1018.64 1018.71 1018.72 1018.75 1018.72 1018.56 1018.46 1018.41 1018.48 1018.61 1018.66 1018.63 1018.59 1018.66 1018.72 1018.79 1018.88
1017.31 1017.82 1018.03 1018.13 1018.22 1018.28 1018.34 1018.34 1018.40 1018.38 1018.44 1018.42 1018.46 1018.48 1018.46 1018.48 1018.46 1018.48 1018.56 1018.53 1018.64 1018.71 1018.78 1018.83 1018.84 1018.85 1018.95 1018.98 1019.03 1018.96 1018.95 1018.90 1018.65 1018.52 1018.70 1018.56 1018.51 1018.88 1018.86 1019.00 1019.10 1019.14 1019.22
1017.90 1018.28 1018.60 1018.68 1018.71 1018.66 1018.65 1018.72 1018.72 1018.73 1018.79 1018.77 1018.84 1018.82 1018.76 1018.78 1018.73 1018.69 1018.79 1018.80 1018.84 1018.91 1018.99 1019.10 1019.13 1019.12 1019.11 1019.18 1019.28 1019.33 1019.21 1019.12 1018.97 1018.73 1018.59 1018.53 1018.79 1018.91 1019.11 1019.29 1019.41 1019.46 1019.51
1018.53 1018.81 1019.03 1019.14 1019.15 1019.11 1019.03 1019.00 1018.99 1018.94 1018.97 1018.91 1018.89 1018.87 1018.90 1018.91 1018.90 1018.96 1019.01 1019.04 1019.08 1019.10 1019.14 1019.17 1019.22 1019.33 1019.32 1019.33 1019.41 1019.48 1019.48 1019.33 1019.17 1018.97 1018.60 1018.74 1018.83 1019.00 1019.20 1019.40 1019.59 1019.76 1019.73
1019.45 1019.38 1019.43 1019.47 1019.47 1019.46 1019.44 1019.40 1019.36 1019.36 1019.30 1019.28 1019.25 1019.19 1019.19 1019.09 1019.01 1018.95 1019.02 1019.09 1019.26 1019.27 1019.29 1019.35 1019.34 1019.38 1019.43 1019.42 1019.47 1019.57 1019.63 1019.52 1019.35 1019.21 1018.91 1019.24 1019.26 1019.11 1019.22 1019.50 1019.68 1019.77 1019.87
1020.54 1020.54 1020.39 1020.22 1020.02 1019.88 1019.83 1019.83 1019.79 1019.70 1019.62 1019.54 1019.47 1019.43 1019.37 1019.26 1019.16 1019.11 1019.11 1019.10 1019.10 1019.19 1019.33 1019.43 1019.45 1019.47 1019.45 1019.44 1019.45 1019.54 1019.62 1019.60 1019.40 1019.45 1019.09 1019.37 1019.41 1019.37 1019.33 1019.57 1019.76 1019.73 1019.92
1022.01 1022.03 1021.83 1021.41 1020.88 1020.57 1020.30 1020.04 1020.00 1019.95 1019.91 1019.85 1019.77 1019.65 1019.48 1019.30 1019.17 1019.10 1019.16 1019.16 1019.16 1019.16 1019.19 1019.28 1019.36 1019.46 1019.49 1019.48 1019.47 1019.56 1019.63 1019.56 1019.55 1019.41 1018.95 1019.40 1019.46 1019.60 1019.63 1019.77 1019.92 1019.89 1019.99
1023.10 1023.08 1022.95 1022.62 1022.13 1021.53 1020.73 1020.26 1020.21 1020.09 1019.89 1019.84 1019.72 1019.55 1019.36 1019.28 1019.17 1019.05 1019.00 1019.10 1019.21 1019.23 1019.19 1019.09 1019.13 1019.22 1019.34 1019.46 1019.48 1019.54 1019.63 1019.59 1019.33 1019.17 1018.96 1019.35 1019.48 1019.60 1019.68 1019.84 1019.97 1019.97 1020.04
1023.84 1023.74 1023.61 1023.28 1022.74 1022.14 1021.15 1020.75 1020.36 1020.06 1019.83 1019.78 1019.71 1019.55 1019.34 1019.24 1019.10 1019.10 1019.26 1019.24 1019.20 1019.17 1019.09 1019.04 1019.00 1019.00 1019.10 1019.17 1019.26 1019.36 1019.49 1019.55 1019.25 1018.96 1018.78 1018.94 1019.20 1019.43 1019.51 1019.72 1019.81 1019.98 1020.07
1024.96 1024.76 1024.53 1024.08 1023.45 1022.83 1022.00 1021.46 1020.81 1020.30 1020.17 1020.00 1019.92 1019.74 1019.56 1019.29 1019.16 1019.03 1019.02 1019.03 1018.97 1019.01 1018.96 1018.84 1018.82 1018.93 1019.00 1018.99 1018.98 1019.21 1019.37 1019.24 1019.04 1018.85 1018.77 1018.85 1018.99 1019.17 1019.37 1019.54 1019.61 1019.78 1019.98
1026.12 1025.75 1025.36 1024.91 1024.31 1023.70 1022.98 1022.50 1021.68 1021.18 1020.92 1020.71 1020.43 1020.31 1020.12 1019.81 1019.47 1019.26 1019.16 1019.13 1019.07 1018.80 1018.87 1018.72 1018.74 1018.83 1018.83 1018.77 1018.75 1018.99 1018.94 1018.86 1018.84 1018.61 1018.70 1018.81 1018.92 1019.01 1019.11 1019.13 1019.20 1019.58 1019.73
1026.75 1026.57 1026.22 1025.75 1025.08 1024.45 1023.92 1023.49 1023.17 1022.54 1022.11 1021.47 1021.16 1021.05 1020.92 1020.59 1020.19 1019.88 1019.52 1019.28 1019.06 1018.86 1018.77 1018.52 1018.57 1018.56 1018.58 1018.52 1018.58 1018.71 1018.58 1018.42 1018.35 1018.53 1018.86 1018.75 1018.80 1018.85 1019.08 1019.21 1019.22 1019.41 1019.56
1027.54 1027.39 1027.00 1026.56 1025.93 1025.30 1024.56 1024.01 1023.81 1023.67 1023.52 1023.17 1022.55 1022.27 1022.02 1021.54 1021.10 1020.54 1020.13 1019.74 1019.43 1019.20 1018.97 1018.84 1018.59 1018.43 1018.41 1018.39 1018.34 1018.30 1018.35 1018.34 1018.22 1018.17 1018.55 1018.67 1018.77 1018.80 1018.93 1019.06 1019.18 1019.33 1019.49
1028.29 1028.03 1027.58 1027.12 1026.68 1026.02 1025.46 1024.85 1024.45 1024.20 1023.78 1023.47 1023.34 1023.25 1022.97 1022.75 1022.37 1021.80 1020.94 1020.38 1019.89 1019.52 1019.34 1019.20 1018.91 1018.64 1018.73 1018.34 1018.34 1018.24 1018.08 1018.02 1018.03 1018.10 1018.02 1018.13 1018.38 1018.53 1018.73 1018.76 1018.89 1019.00 1019.28
1028.80 1028.72 1028.19 1027.81 1027.50 1026.94 1026.48 1026.00 1025.56 1025.11 1024.70 1024.42 1024.43 1024.28 1024.04 1023.61 1023.24 1022.66 1022.00 1021.11 1020.55 1020.01 1019.66 1019.44 1019.23 1018.84 1018.90 1018.75 1018.72 1018.34 1018.26 1018.02 1017.74 1017.59 1017.64 1017.86 1017.81 1018.10 1018.34 1018.41 1018.52 1018.73 1018.80
1029.20 1029.11 1028.97 1028.68 1028.38 1027.86 1027.41 1026.97 1026.41 1026.01 1025.73 1025.35 1025.18 1025.04 1024.85 1024.65 1024.31 1023.70 1022.80 1022.23 1021.64 1020.79 1020.22 1019.94 1019.63 1019.33 1019.08 1018.92 1018.80 1018.61 1018.39 1018.04 1018.01 1017.72 1017.43 1017.29 1017.40 1017.51 1017.76 1018.02 1018.16 1018.48 1018.48
1029.94 1029.81 1029.58 1029.29 1029.01 1028.70 1028.24 1027.79 1027.40 1026.92 1026.41 1026.23 1025.98 1025.83 1025.33 1025.11 1024.91 1024.72 1023.97 1023.12 1022.30 1021.62 1021.05 1020.67 1020.23 1019.74 1019.25 1018.96 1018.68 1018.26 1018.16 1017.99 1017.74 1017.51 1017.54 1017.33 1017.15 1017.04 1017.08 1017.25 1017.69 1017.97 1018.09
1030.43 1030.38 1030.24 1029.94 1029.81 1029.56 1029.17 1028.63 1028.19 1027.75 1027.23 1026.83 1026.46 1026.30 1025.89 1025.61 1025.31 1025.03 1024.65 1024.29 1023.47 1022.42 1021.73 1021.18 1020.84 1020.37 1019.93 1019.21 1018.73 1018.26 1018.02 1017.92 1017.59 1017.44 1017.24 1016.91 1016.90 1016.78 1016.69 1016.67 1016.88 1017.15 1017.43
1030.99 1030.75 1030.67 1030.61 1030.42 1030.12 1029.90 1029.44 1028.87 1028.57 1027.98 1027.40 1026.90 1026.68 1026.33 1026.10 1025.67 1025.29 1024.97 1024.73 1024.38 1023.85 1023.01 1022.09 1021.50 1020.76 1020.24 1019.76 1019.28 1018.55 1018.05 1017.53 1017.19 1016.97 1016.52 1016.47 1016.39 1016.24 1016.21 1016.23 1016.29 1016.53 1016.77
1031.42 1031.39 1031.09 1030.94 1030.97 1030.63 1030.49 1030.29 1029.99 1029.40 1028.57 1028.13 1027.57 1027.16 1026.68 1026.42 1026.07 1025.56 1025.16 1024.86 1024.55 1024.21 1023.66 1022.94 1022.09 1021.47 1020.66 1020.01 1019.67 1019.12 1018.37 1017.50 1016.74 1016.14 1015.97 1015.91 1015.88 1015.80 1015.75 1015.63 1015.65 1015.81 1016.01
1031.99 1031.86 1031.64 1031.38 1031.15 1031.15 1030.90 1030.48 1030.17 1029.71 1029.16 1028.65 1028.25 1027.76 1027.16 1026.75 1026.26 1025.77 1025.33 1025.04 1024.64 1024.25 1023.77 1023.35 1022.81 1022.06 1021.22 1020.54 1019.85 1019.51 1018.52 1017.81 1017.15 1015.94 1015.59 1015.31 1015.45 1015.43 1015.42 1015.23 1015.07 1015.09 1015.16
1032.07 1032.00 1031.88 1031.68 1031.32 1031.07 1031.12 1030.92 1030.58 1030.28 1029.69 1029.18 1028.79 1028.18 1027.55 1026.99 1026.43 1025.94 1025.48 1025.09 1024.72 1024.21 1023.81 1023.20 1022.67 1022.58 1021.97 1021.03 1020.22 1019.20 1018.60 1018.31 1017.96 1017.02 1015.96 1015.50 1015.26 1015.31 1015.16 1015.02 1014.62 1014.53 1014.44
1032.18 1032.19 1032.02 1031.77 1031.47 1031.27 1031.25 1031.17 1030.83 1030.56 1030.13 1029.45 1028.84 1028.31 1027.71 1027.03 1026.46 1026.10 1025.66 1025.18 1024.65 1024.32 1023.77 1023.47 1022.88 1022.47 1022.05 1021.68 1020.83 1019.98 1019.04 1018.05 1017.68 1017.42 1016.55 1016.12 1015.44 1014.96 1014.71 1014.68 1014.52 1014.39 1014.24
1032.36 1032.40 1032.28 1032.03 1031.86 1031.69 1031.46 1031.32 1030.99 1030.56 1030.05 1029.44 1028.84 1028.24 1027.64 1027.01 1026.44 1026.08 1025.67 1025.26 1024.76 1024.33 1023.87 1023.35 1023.03 1022.43 1022.04 1021.55 1021.04 1020.33 1019.46 1018.59 1017.35 1016.86 1016.43 1016.02 1015.57 1014.94 1014.59 1014.25 1014.14 1014.05 1013.99
Thickness
5705 5704 5702 5701 5700 5701 5702 5703 5704 5705 5705 5705 5706 5705 5704 5705 5704 5704 5704 5704 5704 5704 5704 5704 5704 5704 5704 5704 5705 5707 5708 5710 5710 5711 5709 5710 5711 5713 5713 5714 5715 5715 5715
5703 5701 5700 5697 5697 5698 5698 5699 5701 5701 5701 5701 5702 5701 5701 5701 5701 5700 5700 5700 5701 5701 5702 5702 5702 5702 5702 5702 5703 5704 5706 5708 5709 5709 5709 5708 5709 5710 5712 5713 5714 5713 5713
5703 5698 5696 5694 5694 5694 5694 5695 5696 5697 5697 5697 5699 5699 5699 5699 5699 5698 5698 5697 5698 5698 5698 5699 5699 5699 5699 5699 5700 5701 5703 5705 5707 5708 5708 5708 5708 5709 5710 5711 5710 5710 5710
5697 5694 5693 5692 5691 5692 5692 5693 5693 5694 5694 5695 5695 5695 5696 5697 5697 5697 5696 5696 5695 5695 5695 5695 5696 5697 5696 5697 5697 5699 5700 5702 5705 5707 5707 5708 5709 5707 5708 5708 5708 5708 5708
5692 5690 5688 5688 5689 5689 5690 5691 5690 5691 5691 5691 5691 5692 5693 5693 5694 5695 5694 5694 5693 5693 5693 5692 5693 5693 5694 5695 5694 5695 5697 5699 5701 5704 5706 5708 5707 5706 5706 5705 5705 5706 5706
5687 5686 5685 5684 5684 5685 5686 5686 5686 5687 5686 5687 5688 5689 5689 5690 5691 5691 5691 5691 5691 5690 5691 5690 5691 5691 5691 5691 5691 5692 5693 5696 5699 5702 5704 5704 5705 5704 5704 5704 5704 5703 5704
5678 5678 5678 5678 5679 5680 5680 5681 5681 5681 5682 5682 5683 5683 5683 5684 5686 5687 5688 5688 5687 5688 5687 5687 5688 5688 5689 5689 5689 5689 5690 5692 5695 5697 5700 5699 5700 5702 5703 5702 5702 5702 5701
5669 5669 5670 5671 5672 5674 5674 5674 5675 5675 5676 5676 5678 5678 5679 5680 5681 5682 5683 5684 5685 5685 5685 5684 5685 5685 5686 5687 5687 5687 5687 5688 5691 5693 5696 5696 5696 5697 5698 5698 5699 5700 5699
5656 5657 5658 5661 5664 5666 5667 5669 5670 5670 5671 5671 5671 5672 5674 5676 5678 5679 5679 5679 5680 5680 5681 5681 5682 5682 5683 5684 5684 5685 5685 5686 5688 5690 5693 5693 5693 5694 5693 5693 5693 5695 5696
5646 5647 5647 5649 5652 5656 5662 5664 5664 5666 5667 5667 5668 5669 5670 5672 5673 5675 5676 5675 5675 5676 5677 5678 5679 5679 5680 5680 5681 5681 5682 5683 5686 5688 5690 5688 5689 5690 5689 5690 5690 5691 5691
5639 5639 5640 5642 5645 5649 5655 5657 5660 5662 5663 5663 5664 5664 5666 5668 5668 5668 5668 5669 5671 5672 5672 5673 5675 5676 5677 5678 5678 5679 5678 5679 5682 5685 5688 5687 5687 5686 5686 5686 5687 5686 5687
5628 5630 5631 5633 5637 5640 5645 5649 5653 5655 5656 5656 5657 5658 5659 5661 5662 5662 5664 5664 5665 5666 5668 5670 5671 5670 5671 5673 5676 5674 5675 5676 5678 5680 5683 5684 5684 5683 5682 5683 5683 5683 5683
5616 5619 5621 5623 5626 5630 5634 5636 5641 5644 5646 5647 5648 5649 5650 5652 5655 5657 5659 5658 5658 5661 5662 5664 5665 5665 5665 5668 5670 5669 5672 5673 5674 5677 5677 5678 5679 5680 5680 5680 5681 5679 5680
5607 5608 5610 5613 5617 5620 5622 5625 5626 5629 5631 5635 5638 5638 5639 5641 5644 5646 5649 5651 5652 5653 5655 5657 5658 5659 5660 5661 5662 5664 5666 5669 5671 5672 5671 5673 5673 5674 5673 5674 5675 5676 5676
5598 5598 5599 5601 5604 5607 5611 5615 5615 5614 5614 5617 5621 5622 5623 5626 5630 5634 5637 5639 5642 5644 5646 5647 5649 5652 5653 5655 5656 5657 5659 5662 5665 5667 5666 5667 5668 5669 5668 5668 5669 5670 5671
5586 5587 5589 5591 5593 5596 5599 5600 5600 5601 5604 5606 5607 5607 5608 5610 5612 5616 5623 5627 5630 5634 5636 5636 5638 5641 5642 5646 5647 5649 5652 5655 5657 5660 5663 5663 5663 5664 5664 5664 5664 5665 5666
5577 5575 5577 5578 5580 5582 5584 5586 5587 5587 5589 5591 5590 5590 5591 5594 5597 5600 5605 5612 5617 5621 5623 5626 5628 5632 5632 5634 5636 5640 5642 5645 5651 5654 5657 5658 5660 5660 5659 5658 5658 5659 5661
5565 5564 5563 5563 5564 5566 5567 5569 5571 5572 5573 5575 5575 5575 5576 5576 5578 5582 5589 5593 5598 5605 5610 5612 5616 5620 5622 5624 5626 5628 5632 5635 5639 5644 5649 5653 5655 5655 5655 5654 5652 5652 5657
5550 5549 5548 5548 5548 5549 5550 5552 5553 5555 5557 5557 5558 5559 5561 5562 5563 5565 5569 5575 5582 5587 5592 5596 5601 5606 5611 5614 5617 5622 5624 5627 5631 5634 5638 5643 5646 5649 5651 5651 5649 5650 5652
5536 5534 5532 5532 5531 5531 5532 5534 5535 5536 5539 5540 5542 5542 5544 5546 5547 5550 5553 5556 5562 5570 5576 5580 5584 5590 5595 5601 5607 5612 5615 5618 5622 5626 5631 5635 5638 5642 5645 5647 5647 5648 5648
5519 5519 5517 5513 5512 5513 5512 5513 5515 5515 5518 5521 5524 5524 5526 5527 5531 5534 5536 5538 5542 5547 5554 5561 5566 5573 5580 5585 5590 5597 5604 5611 5616 5620 5625 5629 5632 5636 5639 5641 5644 5644 5644
5503 5499 5499 5497 5493 5493 5492 5490 5490 5492 5497 5499 5502 5503 5506 5507 5510 5515 5518 5521 5524 5529 5533 5539 5547 5553 5563 5569 5574 5580 5587 5597 5608 5616 5620 5623 5626 5628 5632 5637 5640 5642 5642
5482 5480 5479 5477 5476 5471 5471 5471 5471 5472 5474 5476 5478 5481 5484 5487 5490 5494 5498 5501 5505 5510 5515 5518 5523 5532 5543 5550 5556 5563 5573 5582 5589 5604 5610 5616 5618 5621 5625 5629 5634 5637 5640
5467 5463 5460 5458 5457 5454 5450 5450 5449 5449 5452 5453 5454 5458 5461 5464 5468 5471 5475 5479 5483 5490 5496 5500 5505 5509 5517 5529 5537 5548 5556 5563 5568 5578 5593 5602 5607 5610 5614 5620 5626 5630 5635
5450 5444 5442 5440 5438 5435 5431 5429 5428 5428 5429 5433 5436 5438 5440 5444 5446 5448 5451 5456 5461 5465 5473 5478 5484 5490 5497 5502 5513 5523 5534 5547 5555 5560 5573 5580 5590 5598 5605 5609 5615 5621 5626
5431 5426 5423 5421 5418 5415 5412 5409 5408 5409 5410 5413 5415 5417 5419 5424 5427 5427 5428 5431 5436 5441 5447 5453 5459 5468 5474 5482 5490 5499 5511 5523 5537 5546 5555 5565 5572 5584 5590 5598 5605 5611 5615